Location: The Saddle
(36.8333°N, 80.3417°W)
Time: 14:14:14
(UTC-04:00)

Courier 1B - Pass Details

Date: 18 September 2024
Orbit: 962 x 1208 km, 28.3° (Epoch: 06 October)

Event Time Altitude Azimuth Distance (km) Brightness Sun altitude
Rises 15:30:47 0° 252° (WSW) 3,809 11.3 42.8°
Reaches altitude 10° 15:33:34 10° 245° (WSW) 2,892 11.0 42.4°
Maximum altitude 15:40:13 43° 176° (S) 1,514 9.5 41.3°
Drops below altitude 10° 15:47:16 10° 108° (ESE) 3,062 9.9 40.2°
Sets 15:50:18 0° 102° (ESE) 4,052 10.4 39.7°
